QPF
0.00 0.00 0.00 0.00 0.00 0.00 0.00 0.00 0.00 0.00 0.00 0.00 0.00 0.00 0.00 0.00 0.00 0.00 0.00 0.00 0.00 0.00 0.00 0.00 0.00 0.00 0.00 0.00 0.00 0.00 0.00 0.00 0.00 0.00 0.00 0.00 0.00 0.00 0.00 0.00 0.00 0.00 0.00 0.00
0.00 0.00 0.00 0.00 0.00 0.00 0.00 0.00 0.00 0.00 0.00 0.00 0.00 0.00 0.00 0.00 0.00 0.00 0.00 0.00 0.00 0.00 0.00 0.00 0.00 0.00 0.00 0.00 0.00 0.00 0.00 0.00 0.00 0.00 0.00 0.00 0.00 0.00 0.00 0.00 0.00 0.00 0.00 0.00
0.00 0.00 0.00 0.00 0.00 0.00 0.00 0.00 0.00 0.00 0.00 0.00 0.00 0.00 0.00 0.00 0.00 0.00 0.00 0.00 0.00 0.00 0.00 0.00 0.00 0.00 0.00 0.00 0.00 0.00 0.00 0.00 0.00 0.00 0.00 0.00 0.00 0.00 0.00 0.00 0.00 0.00 0.00 0.00
0.00 0.00 0.00 0.00 0.00 0.00 0.00 0.00 0.00 0.00 0.00 0.00 0.00 0.00 0.00 0.00 0.00 0.00 0.00 0.00 0.00 0.00 0.00 0.00 0.00 0.00 0.00 0.00 0.00 0.00 0.00 0.00 0.00 0.00 0.00 0.00 0.00 0.00 0.00 0.00 0.00 0.00 0.00 0.00
0.00 0.00 0.00 0.00 0.00 0.00 0.00 0.00 0.00 0.00 0.00 0.00 0.00 0.00 0.00 0.00 0.00 0.00 0.00 0.00 0.00 0.00 0.00 0.00 0.00 0.00 0.00 0.00 0.00 0.00 0.00 0.00 0.00 0.00 0.00 0.00 0.00 0.00 0.00 0.00 0.00 0.00 0.00 0.00
0.00 0.00 0.00 0.00 0.00 0.00 0.00 0.00 0.00 0.00 0.00 0.00 0.00 0.00 0.00 0.00 0.00 0.00 0.00 0.00 0.00 0.00 0.00 0.00 0.00 0.00 0.00 0.00 0.00 0.00 0.00 0.00 0.00 0.00 0.00 0.00 0.00 0.00 0.00 0.00 0.00 0.00 0.00 0.00
0.00 0.00 0.00 0.00 0.00 0.00 0.00 0.00 0.00 0.00 0.00 0.00 0.00 0.00 0.00 0.00 0.00 0.00 0.00 0.00 0.00 0.00 0.00 0.00 0.00 0.00 0.00 0.00 0.00 0.00 0.00 0.00 0.00 0.00 0.00 0.00 0.00 0.00 0.00 0.00 0.00 0.00 0.00 0.00
0.00 0.00 0.00 0.00 0.00 0.00 0.00 0.00 0.00 0.00 0.00 0.00 0.00 0.00 0.00 0.00 0.00 0.00 0.00 0.00 0.00 0.00 0.00 0.00 0.00 0.00 0.00 0.00 0.00 0.00 0.00 0.00 0.00 0.00 0.00 0.00 0.00 0.00 0.00 0.00 0.00 0.00 0.00 0.00
0.00 0.00 0.00 0.00 0.00 0.00 0.00 0.00 0.00 0.00 0.00 0.00 0.00 0.00 0.00 0.00 0.00 0.00 0.00 0.00 0.00 0.00 0.00 0.00 0.00 0.00 0.00 0.00 0.00 0.00 0.00 0.00 0.00 0.00 0.00 0.00 0.00 0.00 0.00 0.00 0.00 0.00 0.00 0.00
0.00 0.00 0.00 0.00 0.00 0.00 0.00 0.00 0.00 0.00 0.00 0.00 0.00 0.00 0.00 0.00 0.00 0.00 0.00 0.00 0.00 0.00 0.00 0.00 0.00 0.00 0.00 0.00 0.00 0.00 0.00 0.00 0.00 0.00 0.00 0.00 0.00 0.00 0.00 0.00 0.00 0.00 0.00 0.00
0.00 0.00 0.00 0.00 0.00 0.00 0.00 0.00 0.00 0.00 0.00 0.00 0.00 0.00 0.00 0.00 0.00 0.00 0.00 0.00 0.00 0.00 0.00 0.00 0.00 0.00 0.00 0.00 0.00 0.00 0.00 0.00 0.00 0.00 0.00 0.00 0.00 0.00 0.00 0.00 0.00 0.00 0.00 0.00
0.00 0.00 0.00 0.00 0.00 0.00 0.00 0.00 0.00 0.00 0.00 0.00 0.00 0.00 0.00 0.00 0.00 0.00 0.00 0.00 0.00 0.00 0.00 0.00 0.00 0.00 0.00 0.00 0.00 0.00 0.00 0.00 0.00 0.00 0.00 0.00 0.00 0.00 0.00 0.00 0.00 0.00 0.00 0.00
0.00 0.00 0.00 0.00 0.00 0.00 0.00 0.00 0.00 0.00 0.00 0.00 0.00 0.00 0.00 0.00 0.00 0.00 0.00 0.00 0.00 0.00 0.00 0.00 0.00 0.00 0.00 0.00 0.00 0.00 0.00 0.00 0.00 0.00 0.00 0.00 0.00 0.00 0.00 0.00 0.00 0.00 0.00 0.00
0.00 0.00 0.00 0.00 0.00 0.00 0.00 0.00 0.00 0.00 0.00 0.00 0.00 0.00 0.00 0.00 0.00 0.00 0.00 0.00 0.00 0.00 0.00 0.00 0.00 0.00 0.00 0.00 0.00 0.00 0.00 0.00 0.00 0.00 0.00 0.00 0.00 0.00 0.00 0.00 0.00 0.00 0.00 0.00
0.00 0.00 0.00 0.00 0.00 0.00 0.00 0.00 0.00 0.00 0.00 0.00 0.00 0.00 0.00 0.00 0.00 0.00 0.00 0.00 0.00 0.00 0.00 0.00 0.00 0.00 0.00 0.00 0.00 0.00 0.00 0.00 0.00 0.00 0.00 0.00 0.00 0.00 0.00 0.00 0.00 0.00 0.00 0.00
0.00 0.00 0.00 0.00 0.00 0.00 0.00 0.00 0.00 0.00 0.00 0.00 0.00 0.00 0.00 0.00 0.00 0.00 0.00 0.00 0.00 0.00 0.00 0.00 0.00 0.00 0.00 0.00 0.00 0.00 0.00 0.00 0.00 0.00 0.00 0.00 0.00 0.00 0.00 0.00 0.00 0.00 0.00 0.00
0.00 0.00 0.00 0.00 0.00 0.00 0.00 0.00 0.00 0.00 0.00 0.00 0.00 0.00 0.00 0.00 0.00 0.00 0.00 0.00 0.00 0.00 0.00 0.00 0.00 0.00 0.00 0.00 0.00 0.00 0.00 0.00 0.00 0.00 0.00 0.00 0.00 0.00 0.00 0.01 0.01 0.01 0.00 0.00
0.00 0.00 0.00 0.00 0.00 0.00 0.00 0.00 0.00 0.00 0.00 0.00 0.00 0.00 0.00 0.00 0.00 0.00 0.00 0.00 0.00 0.00 0.00 0.00 0.00 0.00 0.00 0.00 0.00 0.00 0.00 0.00 0.00 0.00 0.00 0.00 0.00 0.01 0.01 0.01 0.01 0.01 0.01 0.00
0.00 0.00 0.00 0.00 0.00 0.00 0.00 0.00 0.00 0.00 0.00 0.00 0.00 0.00 0.00 0.00 0.00 0.00 0.00 0.00 0.00 0.00 0.00 0.00 0.00 0.00 0.00 0.00 0.00 0.00 0.00 0.00 0.00 0.00 0.00 0.01 0.01 0.01 0.01 0.01 0.01 0.01 0.01 0.01
0.00 0.00 0.00 0.00 0.00 0.00 0.00 0.00 0.00 0.00 0.00 0.00 0.00 0.00 0.00 0.00 0.00 0.00 0.00 0.00 0.00 0.00 0.00 0.00 0.00 0.00 0.00 0.00 0.00 0.00 0.00 0.00 0.01 0.01 0.01 0.01 0.01 0.01 0.01 0.01 0.01 0.01 0.01 0.01
0.00 0.00 0.00 0.00 0.00 0.00 0.00 0.00 0.00 0.00 0.00 0.00 0.00 0.00 0.00 0.00 0.00 0.00 0.00 0.00 0.00 0.00 0.00 0.00 0.00 0.00 0.00 0.00 0.00 0.00 0.01 0.01 0.01 0.01 0.01 0.01 0.01 0.01 0.01 0.01 0.01 0.01 0.01 0.01
0.00 0.00 0.00 0.00 0.00 0.00 0.00 0.00 0.00 0.00 0.00 0.00 0.00 0.00 0.00 0.00 0.00 0.00 0.00 0.00 0.00 0.00 0.00 0.00 0.00 0.00 0.00 0.00 0.01 0.01 0.01 0.01 0.01 0.01 0.01 0.01 0.01 0.01 0.01 0.01 0.01 0.01 0.01 0.01
0.00 0.00 0.00 0.00 0.00 0.00 0.00 0.00 0.00 0.00 0.00 0.00 0.00 0.00 0.00 0.00 0.00 0.00 0.00 0.00 0.00 0.00 0.00 0.00 0.00 0.00 0.00 0.01 0.00 0.00 0.00 0.00 0.01 0.01 0.01 0.01 0.01 0.01 0.01 0.01 0.01 0.01 0.01 0.01
0.00 0.00 0.00 0.00 0.00 0.00 0.00 0.00 0.00 0.00 0.00 0.00 0.00 0.00 0.00 0.00 0.00 0.00 0.00 0.00 0.00 0.00 0.00 0.00 0.00 0.00 0.00 0.00 0.00 0.00 0.00 0.00 0.00 0.01 0.01 0.01 0.01 0.01 0.02 0.01 0.01 0.01 0.01 0.01
0.00 0.00 0.00 0.00 0.00 0.00 0.00 0.00 0.00 0.00 0.00 0.00 0.00 0.00 0.00 0.00 0.00 0.00 0.00 0.00 0.00 0.00 0.00 0.00 0.00 0.00 0.00 0.00 0.00 0.00 0.00 0.00 0.01 0.01 0.02 0.02 0.02 0.01 0.01 0.01 0.01 0.01 0.01 0.01
0.00 0.00 0.00 0.00 0.00 0.00 0.00 0.00 0.00 0.00 0.00 0.00 0.00 0.00 0.00 0.00 0.00 0.00 0.00 0.00 0.00 0.00 0.00 0.00 0.00 0.00 0.00 0.00 0.00 0.00 0.00 0.01 0.01 0.01 0.01 0.01 0.01 0.01 0.01 0.01 0.01 0.01 0.01 0.01
0.00 0.00 0.00 0.00 0.00 0.00 0.00 0.00 0.00 0.00 0.00 0.00 0.00 0.00 0.00 0.00 0.00 0.00 0.00 0.00 0.00 0.00 0.00 0.00 0.00 0.00 0.00 0.00 0.00 0.00 0.00 0.01 0.01 0.01 0.01 0.01 0.01 0.01 0.01 0.01 0.01 0.01 0.01 0.01
MSLP
1013.43 1013.87 1014.29 1014.65 1014.89 1014.97 1014.87 1014.56 1014.08 1013.46 1012.79 1012.14 1011.60 1011.24 1011.10 1011.20 1011.53 1012.06 1012.72 1013.48 1014.27 1015.06 1015.83 1016.56 1017.25 1017.90 1018.52 1019.09 1019.63 1020.10 1020.50 1020.81 1021.02 1021.13 1021.15 1021.08 1020.95 1020.77 1020.55 1020.30 1020.02 1019.72 1019.40 1019.06
1013.32 1013.65 1013.93 1014.12 1014.18 1014.11 1013.88 1013.51 1013.03 1012.48 1011.92 1011.42 1011.04 1010.84 1010.83 1011.02 1011.40 1011.95 1012.61 1013.35 1014.13 1014.91 1015.68 1016.42 1017.12 1017.80 1018.44 1019.02 1019.55 1020.00 1020.37 1020.64 1020.80 1020.85 1020.82 1020.70 1020.52 1020.29 1020.04 1019.76 1019.46 1019.14 1018.80 1018.45
1013.34 1013.54 1013.65 1013.65 1013.53 1013.31 1012.97 1012.56 1012.09 1011.61 1011.17 1010.82 1010.60 1010.54 1010.65 1010.93 1011.37 1011.94 1012.60 1013.33 1014.09 1014.86 1015.61 1016.35 1017.05 1017.72 1018.35 1018.91 1019.41 1019.82 1020.13 1020.33 1020.43 1020.43 1020.34 1020.18 1019.97 1019.72 1019.44 1019.14 1018.83 1018.50 1018.16 1017.81
1013.42 1013.46 1013.38 1013.20 1012.92 1012.56 1012.15 1011.71 1011.28 1010.89 1010.57 1010.37 1010.30 1010.38 1010.61 1010.98 1011.47 1012.06 1012.73 1013.44 1014.17 1014.91 1015.64 1016.35 1017.03 1017.67 1018.25 1018.77 1019.20 1019.54 1019.78 1019.92 1019.95 1019.90 1019.76 1019.57 1019.34 1019.08 1018.79 1018.49 1018.18 1017.86 1017.52 1017.17
1013.42 1013.29 1013.05 1012.70 1012.29 1011.84 1011.39 1010.97 1010.60 1010.32 1010.14 1010.09 1010.17 1010.38 1010.72 1011.16 1011.70 1012.31 1012.97 1013.66 1014.36 1015.06 1015.75 1016.42 1017.05 1017.63 1018.15 1018.59 1018.94 1019.20 1019.36 1019.42 1019.40 1019.29 1019.13 1018.92 1018.68 1018.42 1018.14 1017.85 1017.55 1017.23 1016.89 1016.54
1013.22 1012.94 1012.55 1012.10 1011.61 1011.12 1010.68 1010.32 1010.05 1009.90 1009.87 1009.97 1010.19 1010.52 1010.95 1011.46 1012.03 1012.65 1013.29 1013.96 1014.62 1015.28 1015.92 1016.52 1017.09 1017.60 1018.03 1018.39 1018.65 1018.82 1018.90 1018.89 1018.81 1018.67 1018.48 1018.26 1018.02 1017.76 1017.50 1017.21 1016.92 1016.60 1016.26 1015.90
1012.74 1012.35 1011.87 1011.36 1010.85 1010.39 1010.01 1009.75 1009.61 1009.61 1009.74 1009.98 1010.34 1010.78 1011.29 1011.84 1012.44 1013.05 1013.67 1014.29 1014.91 1015.52 1016.09 1016.63 1017.12 1017.55 1017.90 1018.17 1018.34 1018.43 1018.43 1018.36 1018.23 1018.05 1017.85 1017.62 1017.37 1017.12 1016.86 1016.57 1016.27 1015.94 1015.58 1015.21
1011.98 1011.52 1011.02 1010.51 1010.05 1009.67 1009.40 1009.28 1009.29 1009.45 1009.73 1010.12 1010.59 1011.11 1011.68 1012.26 1012.86 1013.45 1014.04 1014.63 1015.19 1015.73 1016.25 1016.72 1017.13 1017.48 1017.75 1017.93 1018.02 1018.03 1017.97 1017.84 1017.67 1017.46 1017.23 1016.99 1016.74 1016.47 1016.19 1015.89 1015.57 1015.21 1014.83 1014.43
1011.01 1010.56 1010.08 1009.64 1009.27 1009.02 1008.90 1008.93 1009.11 1009.42 1009.84 1010.34 1010.90 1011.49 1012.09 1012.68 1013.27 1013.83 1014.38 1014.91 1015.42 1015.90 1016.35 1016.75 1017.09 1017.36 1017.56 1017.66 1017.69 1017.63 1017.51 1017.34 1017.13 1016.89 1016.63 1016.37 1016.09 1015.80 1015.49 1015.15 1014.79 1014.40 1013.98 1013.54
1009.97 1009.57 1009.18 1008.84 1008.61 1008.51 1008.56 1008.75 1009.08 1009.52 1010.05 1010.64 1011.26 1011.89 1012.50 1013.08 1013.64 1014.16 1014.66 1015.13 1015.58 1016.00 1016.38 1016.71 1016.99 1017.19 1017.32 1017.36 1017.33 1017.22 1017.06 1016.84 1016.60 1016.32 1016.04 1015.74 1015.42 1015.08 1014.73 1014.34 1013.93 1013.49 1013.03 1012.56
1009.01 1008.70 1008.43 1008.24 1008.16 1008.21 1008.41 1008.75 1009.20 1009.75 1010.36 1011.01 1011.65 1012.28 1012.88 1013.44 1013.95 1014.43 1014.87 1015.28 1015.67 1016.02 1016.34 1016.61 1016.81 1016.96 1017.02 1017.01 1016.93 1016.78 1016.58 1016.33 1016.06 1015.75 1015.43 1015.08 1014.72 1014.33 1013.91 1013.47 1013.00 1012.51 1012.01 1011.52
1008.27 1008.08 1007.94 1007.90 1007.97 1008.17 1008.49 1008.94 1009.49 1010.10 1010.75 1011.42 1012.06 1012.68 1013.24 1013.76 1014.22 1014.64 1015.03 1015.38 1015.70 1015.99 1016.23 1016.43 1016.58 1016.66 1016.67 1016.61 1016.48 1016.30 1016.07 1015.79 1015.48 1015.15 1014.79 1014.40 1013.99 1013.55 1013.07 1012.57 1012.04 1011.51 1010.98 1010.48
1007.83 1007.76 1007.76 1007.85 1008.05 1008.37 1008.79 1009.31 1009.90 1010.55 1011.21 1011.86 1012.48 1013.06 1013.58 1014.04 1014.46 1014.82 1015.15 1015.44 1015.69 1015.90 1016.08 1016.20 1016.28 1016.29 1016.24 1016.13 1015.97 1015.75 1015.49 1015.20 1014.87 1014.51 1014.12 1013.70 1013.24 1012.75 1012.23 1011.67 1011.10 1010.53 1009.98 1009.47
1007.70 1007.76 1007.88 1008.08 1008.38 1008.78 1009.26 1009.81 1010.42 1011.06 1011.70 1012.32 1012.90 1013.43 1013.90 1014.32 1014.68 1014.98 1015.25 1015.47 1015.65 1015.78 1015.88 1015.92 1015.92 1015.86 1015.75 1015.58 1015.38 1015.13 1014.85 1014.54 1014.19 1013.82 1013.41 1012.97 1012.48 1011.96 1011.40 1010.81 1010.21 1009.61 1009.05 1008.53
1007.87 1008.02 1008.24 1008.53 1008.90 1009.34 1009.85 1010.41 1011.00 1011.60 1012.20 1012.77 1013.30 1013.78 1014.20 1014.57 1014.88 1015.13 1015.32 1015.48 1015.58 1015.63 1015.63 1015.59 1015.50 1015.36 1015.18 1014.96 1014.71 1014.43 1014.12 1013.80 1013.45 1013.07 1012.66 1012.20 1011.71 1011.16 1010.58 1009.97 1009.36 1008.75 1008.18 1007.66
1008.25 1008.49 1008.78 1009.13 1009.54 1010.00 1010.50 1011.04 1011.60 1012.16 1012.70 1013.21 1013.69 1014.12 1014.48 1014.80 1015.05 1015.24 1015.37 1015.45 1015.46 1015.42 1015.33 1015.19 1015.01 1014.78 1014.53 1014.25 1013.95 1013.64 1013.32 1012.99 1012.63 1012.26 1011.85 1011.40 1010.90 1010.36 1009.77 1009.16 1008.54 1007.93 1007.35 1006.83
1008.80 1009.09 1009.43 1009.82 1010.24 1010.70 1011.18 1011.68 1012.19 1012.69 1013.18 1013.63 1014.05 1014.41 1014.73 1014.98 1015.18 1015.30 1015.36 1015.36 1015.28 1015.15 1014.96 1014.72 1014.44 1014.13 1013.80 1013.46 1013.12 1012.78 1012.44 1012.10 1011.75 1011.38 1010.98 1010.53 1010.04 1009.51 1008.93 1008.33 1007.71 1007.10 1006.53 1006.01
1009.43 1009.77 1010.14 1010.54 1010.96 1011.40 1011.85 1012.31 1012.76 1013.20 1013.62 1014.00 1014.36 1014.66 1014.91 1015.10 1015.22 1015.28 1015.26 1015.17 1015.01 1014.78 1014.49 1014.16 1013.80 1013.41 1013.01 1012.61 1012.23 1011.86 1011.50 1011.15 1010.80 1010.43 1010.04 1009.61 1009.13 1008.61 1008.04 1007.45 1006.85 1006.25 1005.68 1005.17
1010.13 1010.49 1010.87 1011.27 1011.68 1012.09 1012.50 1012.90 1013.29 1013.66 1014.01 1014.32 1014.60 1014.83 1015.00 1015.11 1015.16 1015.13 1015.03 1014.85 1014.60 1014.29 1013.92 1013.51 1013.07 1012.61 1012.16 1011.72 1011.30 1010.91 1010.53 1010.17 1009.81 1009.45 1009.05 1008.63 1008.16 1007.65 1007.10 1006.52 1005.93 1005.35 1004.79 1004.28
1010.84 1011.22 1011.61 1012.00 1012.38 1012.75 1013.11 1013.45 1013.77 1014.06 1014.33 1014.56 1014.75 1014.89 1014.97 1015.00 1014.96 1014.84 1014.66 1014.39 1014.06 1013.67 1013.24 1012.76 1012.27 1011.77 1011.28 1010.82 1010.37 1009.96 1009.57 1009.20 1008.83 1008.45 1008.05 1007.62 1007.15 1006.64 1006.10 1005.54 1004.96 1004.40 1003.86 1003.36
1011.56 1011.94 1012.32 1012.69 1013.04 1013.36 1013.67 1013.94 1014.18 1014.39 1014.56 1014.69 1014.78 1014.82 1014.81 1014.74 1014.60 1014.40 1014.13 1013.79 1013.39 1012.94 1012.46 1011.95 1011.43 1010.91 1010.40 1009.92 1009.47 1009.05 1008.64 1008.26 1007.87 1007.48 1007.06 1006.62 1006.14 1005.63 1005.09 1004.54 1003.98 1003.43 1002.91 1002.44
1012.25 1012.62 1012.98 1013.32 1013.63 1013.90 1014.14 1014.34 1014.49 1014.61 1014.68 1014.71 1014.70 1014.63 1014.51 1014.33 1014.10 1013.81 1013.46 1013.06 1012.61 1012.12 1011.61 1011.09 1010.56 1010.04 1009.54 1009.06 1008.61 1008.19 1007.77 1007.37 1006.97 1006.55 1006.11 1005.65 1005.15 1004.63 1004.09 1003.55 1003.00 1002.48 1001.98 1001.52
1012.88 1013.24 1013.57 1013.87 1014.13 1014.34 1014.51 1014.63 1014.69 1014.71 1014.68 1014.61 1014.48 1014.31 1014.08 1013.81 1013.49 1013.12 1012.70 1012.25 1011.76 1011.25 1010.73 1010.21 1009.69 1009.19 1008.70 1008.24 1007.80 1007.38 1006.96 1006.55 1006.12 1005.68 1005.22 1004.73 1004.21 1003.68 1003.13 1002.59 1002.06 1001.55 1001.07 1000.64
1013.42 1013.76 1014.06 1014.31 1014.52 1014.66 1014.75 1014.79 1014.77 1014.69 1014.57 1014.39 1014.16 1013.89 1013.57 1013.20 1012.80 1012.36 1011.89 1011.40 1010.88 1010.36 1009.84 1009.33 1008.83 1008.35 1007.89 1007.45 1007.02 1006.60 1006.18 1005.76 1005.31 1004.85 1004.36 1003.84 1003.31 1002.76 1002.20 1001.66 1001.13 1000.63 1000.17 999.75
1013.87 1014.17 1014.43 1014.63 1014.77 1014.85 1014.87 1014.83 1014.72 1014.56 1014.34 1014.08 1013.76 1013.40 1013.00 1012.56 1012.09 1011.59 1011.08 1010.55 1010.02 1009.49 1008.97 1008.47 1007.99 1007.52 1007.08 1006.65 1006.24 1005.82 1005.40 1004.96 1004.50 1004.01 1003.50 1002.96 1002.40 1001.84 1001.28 1000.72 1000.20 999.70 999.24 998.83
1014.22 1014.49 1014.69 1014.83 1014.91 1014.92 1014.87 1014.75 1014.57 1014.34 1014.05 1013.71 1013.32 1012.89 1012.43 1011.93 1011.41 1010.86 1010.31 1009.75 1009.19 1008.65 1008.12 1007.62 1007.14 1006.68 1006.24 1005.82 1005.40 1004.98 1004.54 1004.09 1003.62 1003.11 1002.58 1002.03 1001.45 1000.87 1000.30 999.73 999.20 998.69 998.23 997.80
1014.52 1014.73 1014.87 1014.95 1014.96 1014.91 1014.78 1014.60 1014.36 1014.06 1013.71 1013.32 1012.88 1012.40 1011.89 1011.34 1010.77 1010.19 1009.60 1009.00 1008.42 1007.84 1007.29 1006.77 1006.27 1005.79 1005.34 1004.90 1004.47 1004.03 1003.58 1003.12 1002.62 1002.10 1001.56 1000.99 1000.40 999.80 999.21 998.64 998.08 997.56 997.07 996.62
Thickness
5599 5605 5601 5602 5605 5602 5598 5598 5594 5603 5609 5624 5627 5626 5627 5625 5622 5617 5613 5609 5605 5598 5590 5582 5574 5567 5560 5552 5545 5538 5531 5524 5518 5513 5507 5502 5497 5492 5488 5483 5480 5475 5471 5467
5595 5599 5597 5598 5602 5601 5600 5602 5600 5603 5611 5627 5626 5623 5619 5617 5615 5612 5609 5605 5599 5591 5582 5574 5567 5559 5551 5543 5536 5529 5521 5515 5509 5503 5497 5492 5487 5482 5478 5473 5469 5464 5460 5456
5577 5589 5589 5584 5599 5600 5600 5603 5603 5602 5617 5624 5619 5617 5616 5614 5611 5609 5605 5599 5592 5584 5577 5568 5560 5552 5542 5534 5526 5518 5511 5505 5499 5493 5487 5482 5477 5472 5467 5463 5459 5454 5450 5445
5566 5573 5563 5592 5607 5607 5604 5607 5608 5610 5615 5616 5615 5613 5611 5609 5605 5601 5596 5590 5582 5574 5565 5557 5549 5540 5532 5523 5515 5507 5500 5494 5488 5483 5477 5472 5467 5462 5457 5453 5448 5444 5440 5436
5552 5557 5566 5585 5600 5602 5596 5599 5609 5607 5608 5605 5603 5601 5598 5599 5597 5593 5587 5580 5572 5564 5554 5545 5537 5529 5520 5511 5503 5496 5490 5484 5479 5473 5468 5462 5457 5453 5448 5444 5439 5435 5430 5426
5546 5551 5556 5585 5602 5604 5598 5591 5608 5604 5600 5593 5591 5586 5589 5589 5585 5579 5573 5566 5557 5549 5541 5533 5525 5517 5508 5500 5492 5486 5481 5476 5470 5464 5458 5453 5449 5444 5439 5434 5430 5426 5421 5415
5545 5547 5559 5585 5594 5593 5578 5589 5603 5599 5593 5585 5584 5585 5581 5575 5570 5564 5557 5551 5544 5536 5529 5521 5513 5505 5497 5489 5483 5478 5473 5467 5461 5455 5450 5445 5440 5434 5429 5424 5420 5415 5411 5406
5540 5540 5557 5586 5581 5581 5587 5593 5593 5590 5586 5580 5577 5571 5565 5560 5554 5548 5542 5536 5530 5523 5515 5507 5501 5494 5486 5479 5475 5469 5463 5457 5451 5446 5440 5436 5429 5424 5418 5412 5407 5402 5398 5395
5561 5569 5580 5580 5583 5586 5583 5583 5583 5579 5576 5570 5563 5557 5551 5546 5540 5534 5529 5523 5516 5509 5501 5494 5488 5482 5475 5470 5464 5458 5452 5446 5441 5436 5430 5424 5417 5412 5406 5400 5394 5390 5384 5381
5557 5564 5572 5573 5575 5576 5575 5575 5573 5570 5565 5559 5554 5547 5539 5532 5526 5521 5515 5509 5503 5496 5489 5482 5476 5471 5465 5459 5453 5447 5441 5436 5430 5424 5419 5413 5407 5400 5394 5387 5380 5375 5370 5366
5555 5563 5566 5568 5566 5567 5565 5564 5561 5558 5554 5549 5543 5536 5528 5521 5515 5509 5503 5496 5490 5483 5477 5471 5465 5459 5454 5448 5442 5435 5430 5424 5419 5413 5407 5402 5396 5389 5383 5376 5366 5361 5357 5351
5558 5562 5559 5562 5564 5559 5555 5553 5550 5546 5541 5536 5532 5525 5517 5510 5503 5496 5489 5483 5476 5470 5465 5459 5453 5448 5442 5437 5431 5424 5418 5413 5407 5401 5395 5389 5384 5380 5375 5366 5360 5352 5344 5337
5559 5558 5555 5557 5555 5551 5547 5543 5538 5534 5529 5523 5518 5512 5505 5497 5489 5483 5476 5470 5465 5459 5453 5447 5441 5436 5431 5426 5420 5413 5406 5401 5395 5389 5382 5376 5370 5364 5362 5360 5350 5341 5333 5325
5547 5546 5544 5544 5541 5538 5534 5530 5524 5519 5514 5510 5503 5497 5491 5484 5476 5470 5465 5459 5453 5447 5441 5435 5429 5425 5420 5414 5408 5402 5395 5390 5384 5377 5370 5363 5355 5348 5342 5339 5338 5334 5324 5314
5534 5535 5533 5530 5525 5521 5518 5513 5508 5502 5498 5493 5488 5483 5477 5471 5464 5459 5453 5446 5440 5434 5429 5423 5418 5414 5409 5403 5397 5390 5384 5377 5371 5364 5357 5349 5342 5335 5328 5322 5318 5316 5312 5305
5519 5517 5515 5513 5510 5507 5503 5500 5495 5489 5484 5479 5473 5469 5464 5458 5451 5445 5439 5434 5428 5422 5417 5412 5407 5403 5398 5391 5385 5379 5372 5367 5360 5352 5345 5337 5329 5321 5314 5308 5303 5299 5295 5290
5507 5504 5502 5499 5496 5493 5490 5487 5483 5477 5471 5466 5460 5454 5449 5443 5437 5432 5427 5421 5416 5411 5406 5400 5396 5392 5386 5379 5372 5366 5359 5353 5347 5339 5330 5322 5315 5307 5301 5294 5289 5286 5282 5278
5502 5501 5497 5493 5487 5481 5476 5472 5468 5463 5457 5452 5446 5441 5435 5430 5425 5420 5414 5409 5403 5399 5394 5389 5384 5379 5373 5366 5359 5352 5345 5339 5331 5324 5316 5309 5301 5295 5288 5282 5277 5273 5271 5268
5486 5484 5481 5478 5474 5469 5463 5457 5452 5447 5443 5438 5432 5427 5422 5417 5412 5406 5401 5395 5390 5386 5384 5378 5374 5367 5360 5353 5346 5339 5331 5324 5318 5311 5303 5296 5290 5283 5275 5270 5265 5261 5258 5256
5469 5467 5464 5461 5457 5452 5447 5442 5438 5432 5428 5423 5418 5412 5407 5403 5398 5392 5387 5381 5377 5374 5371 5366 5360 5353 5346 5339 5333 5325 5317 5310 5303 5297 5289 5283 5276 5271 5265 5259 5254 5251 5248 5245
5452 5450 5447 5444 5439 5435 5431 5427 5422 5417 5412 5408 5403 5398 5393 5388 5383 5378 5373 5370 5368 5362 5358 5353 5346 5339 5332 5326 5320 5312 5304 5296 5289 5282 5276 5270 5264 5259 5254 5250 5245 5242 5240 5238
5435 5433 5430 5427 5423 5417 5413 5410 5406 5401 5397 5393 5388 5384 5379 5375 5370 5365 5361 5357 5356 5351 5345 5339 5331 5325 5319 5314 5307 5298 5290 5282 5275 5269 5263 5257 5252 5248 5245 5241 5237 5235 5233 5232
5419 5416 5413 5409 5405 5400 5396 5393 5389 5386 5382 5378 5374 5370 5366 5362 5357 5353 5352 5348 5341 5337 5332 5325 5318 5313 5307 5300 5292 5284 5276 5269 5263 5257 5252 5248 5243 5240 5237 5234 5232 5230 5228 5227
5402 5399 5395 5391 5388 5384 5381 5377 5374 5371 5367 5364 5360 5356 5352 5349 5346 5341 5336 5333 5328 5323 5317 5311 5305 5299 5293 5285 5277 5270 5263 5258 5253 5248 5244 5240 5237 5234 5232 5230 5228 5227 5225 5225
5384 5380 5377 5375 5372 5369 5366 5363 5360 5357 5354 5351 5347 5343 5339 5334 5331 5329 5323 5317 5313 5308 5302 5296 5290 5284 5277 5270 5264 5258 5253 5249 5244 5241 5238 5235 5232 5230 5228 5226 5225 5224 5224 5223
5368 5365 5362 5360 5357 5354 5351 5349 5347 5344 5342 5340 5336 5331 5326 5321 5316 5312 5308 5303 5298 5293 5287 5282 5275 5270 5264 5259 5254 5249 5245 5242 5238 5234 5231 5229 5228 5226 5225 5225 5223 5223 5223 5223
5353 5351 5349 5346 5344 5341 5338 5336 5333 5331 5328 5324 5322 5318 5313 5308 5303 5298 5293 5288 5283 5279 5274 5269 5264 5259 5254 5250 5246 5242 5238 5235 5232 5229 5227 5226 5225 5224 5223 5222 5222 5222 5222 5222